Location: Silverdale
(47.6506°N, 122.6941°W)
Time: 03:53:39
(UTC+00:00)

Courier 1B Rocket - Pass Details

Date: 06 October 2022
Orbit: 920 x 1202 km, 28.3° (Epoch: 28 November)

Event Time Altitude Azimuth Distance (km) Brightness Sun altitude
Rises 04:06:28 0° 236° (SW) 3,743 8.5 -24.8°
Reaches altitude 10° 04:10:57 10° 209° (SSW) 2,727 7.4 -25.5°
Enters shadow 04:13:25 13° 187° (S) 2,498 7.0 -25.9°
